Weather History for Aniak, AK

Change the Weather History Date:

Sunday, March 17, 2013

  Actual Average Record
Temperature  
Mean Temperature 24 °F -  
Max Temperature 33 °F 21 °F 39 °F (2002)
Min Temperature 14 °F 4 °F -27 °F (2012)
Degree Days  
Heating Degree Days 41    
Moisture  
Dew Point 15 °F    
Average Humidity 71    
Maximum Humidity 93    
Minimum Humidity 37    
Precipitation  
Precipitation 0.00 in - - ()
Sea Level Pressure  
Sea Level Pressure 30.24 in    
Wind  
Wind Speed 6 mph (ESE)    
Max Wind Speed 12 mph    
Max Gust Speed -    
Visibility 10 miles    
Events      
Averages and records for this station are not official NWS values.
T = Trace of Precipitation, MM = Missing Value Source: NWS Daily Summary

Daily Weather History Graph

Daily Weather History Graph

Search for Another Location

Airport:

Trip Planner

Search our weather history database for the weather conditions in past years. The results will help you decide how hot, cold, wet, or windy it might be!

Date:

Astronomy

Mar. 17, 2013 Rise Set
Actual Time 8:47 AM AKDT 8:46 PM AKDT
Civil Twilight 8:03 AM AKDT 9:30 PM AKDT
Nautical Twilight 7:11 AM AKDT 10:22 PM AKDT
Astronomical Twilight 6:15 AM AKDT 11:20 PM AKDT
Moon 10:28 AM AKDT (3/17) 3:42 AM AKDT (3/17)
Length of Visible Light 13h 26m
Length of Day
11h 59m
Waxing Crescent, 33% of the Moon is Illuminated
Mar 17
Waxing Crescent
Mar 19
First Quarter
Mar 27
Full
Apr 2
Last Quarter
Apr 10
New

Hourly Weather History & Observations

Time (AKDT) Temp. Windchill Dew Point Humidity Pressure Visibility Wind Dir Wind Speed Gust Speed Precip Events Conditions
12:16 AM 23.0 °F 15.8 °F 19.4 °F 86% 30.18 in 9.0 mi ESE 5.8 mph - N/A   Overcast
12:36 AM 23.0 °F 14.7 °F 19.4 °F 86% 30.19 in 10.0 mi ESE 6.9 mph - N/A   Overcast
12:56 AM 23.0 °F 14.7 °F 17.6 °F 80% 30.20 in 7.0 mi ESE 6.9 mph - N/A   Overcast
1:16 AM 21.2 °F 10.9 °F 19.4 °F 93% 30.20 in 5.0 mi ESE 9.2 mph - N/A   Overcast
1:36 AM 21.2 °F 10.9 °F 17.6 °F 86% 30.21 in 5.0 mi ESE 9.2 mph - N/A   Overcast
1:56 AM 21.2 °F 12.6 °F 17.6 °F 86% 30.21 in 10.0 mi East 6.9 mph - N/A   Overcast
2:16 AM 21.2 °F 12.6 °F 17.6 °F 86% 30.22 in 9.0 mi ESE 6.9 mph - N/A   Overcast
2:36 AM 21.2 °F 12.6 °F 17.6 °F 86% 30.22 in 9.0 mi ESE 6.9 mph - N/A   Overcast
2:56 AM 21.2 °F 12.6 °F 17.6 °F 86% 30.23 in 10.0 mi SE 6.9 mph - N/A   Overcast
3:16 AM 21.2 °F 12.6 °F 17.6 °F 86% 30.24 in 10.0 mi SE 6.9 mph - N/A   Overcast
3:36 AM 21.2 °F 11.7 °F 17.6 °F 86% 30.24 in 9.0 mi ESE 8.1 mph - N/A   Overcast
3:56 AM 21.2 °F 10.9 °F 17.6 °F 86% 30.24 in 10.0 mi ESE 9.2 mph - N/A   Overcast
4:16 AM 23.0 °F 13.1 °F 17.6 °F 80% 30.25 in 10.0 mi ESE 9.2 mph - N/A   Overcast
4:36 AM 21.2 °F 10.9 °F 17.6 °F 86% 30.25 in 10.0 mi East 9.2 mph - N/A   Overcast
4:56 AM 21.2 °F 12.6 °F 17.6 °F 86% 30.26 in 10.0 mi ESE 6.9 mph - N/A   Overcast
5:16 AM 21.2 °F 14.9 °F 17.6 °F 86% 30.26 in 10.0 mi SE 4.6 mph - N/A   Overcast
5:36 AM 21.2 °F 14.9 °F 17.6 °F 86% 30.26 in 10.0 mi ESE 4.6 mph - N/A   Overcast
5:56 AM 21.2 °F 14.9 °F 15.8 °F 80% 30.27 in 10.0 mi SE 4.6 mph - N/A   Overcast
6:16 AM 19.4 °F 11.5 °F 12.2 °F 74% 30.27 in 10.0 mi ESE 5.8 mph - N/A   Overcast
6:36 AM 19.4 °F 14.3 °F 15.8 °F 86% 30.27 in 10.0 mi ESE 3.5 mph - N/A   Overcast
6:56 AM 19.4 °F 12.8 °F 15.8 °F 86% 30.27 in 10.0 mi ESE 4.6 mph - N/A   Overcast
7:16 AM 21.2 °F 13.6 °F 15.8 °F 80% 30.27 in 10.0 mi ESE 5.8 mph - N/A   Overcast
7:36 AM 21.2 °F 14.9 °F 14.0 °F 74% 30.27 in 10.0 mi ESE 4.6 mph - N/A   Overcast
7:56 AM 19.4 °F 12.8 °F 14.0 °F 80% 30.27 in 10.0 mi SE 4.6 mph - N/A   Overcast
8:16 AM 19.4 °F 9.5 °F 10.4 °F 68% 30.27 in 10.0 mi ESE 8.1 mph - N/A   Overcast
8:36 AM 19.4 °F 10.4 °F 12.2 °F 74% 30.27 in 10.0 mi ESE 6.9 mph - N/A   Overcast
8:56 AM 17.6 °F 9.3 °F 10.4 °F 73% 30.27 in 10.0 mi SE 5.8 mph - N/A   Overcast
9:16 AM 17.6 °F 12.3 °F 10.4 °F 73% 30.27 in 10.0 mi SSE 3.5 mph - N/A   Partly Cloudy
9:36 AM 17.6 °F 10.7 °F 12.2 °F 79% 30.27 in 10.0 mi SE 4.6 mph - N/A   Clear
10:16 AM 15.8 °F 7.2 °F 10.4 °F 79% 30.27 in 10.0 mi East 5.8 mph - N/A   Clear
10:36 AM 15.8 °F 7.2 °F 10.4 °F 79% 30.27 in 10.0 mi ESE 5.8 mph - N/A   Clear
10:56 AM 17.6 °F 8.2 °F 10.4 °F 73% 30.27 in 10.0 mi ESE 6.9 mph - N/A   Clear
11:16 AM 17.6 °F 10.7 °F 12.2 °F 79% 30.27 in 10.0 mi East 4.6 mph - N/A   Clear
11:36 AM 19.4 °F 10.4 °F 10.4 °F 68% 30.27 in 10.0 mi ESE 6.9 mph - N/A   Clear
11:56 AM 21.2 °F 12.6 °F 15.8 °F 80% 30.27 in 10.0 mi ESE 6.9 mph - N/A   Clear
12:16 PM 21.2 °F 13.6 °F 12.2 °F 68% 30.27 in 10.0 mi East 5.8 mph - N/A   Clear
12:36 PM 23.0 °F 11.7 °F 12.2 °F 63% 30.27 in 10.0 mi ESE 11.5 mph - N/A   Clear
12:56 PM 24.8 °F 15.3 °F 15.8 °F 69% 30.27 in 10.0 mi ESE 9.2 mph - N/A   Clear
1:16 PM 24.8 °F 14.6 °F 15.8 °F 69% 30.27 in 10.0 mi ESE 10.4 mph - N/A   Clear
1:36 PM 26.6 °F 18.2 °F 15.8 °F 64% 30.27 in 10.0 mi ESE 8.1 mph - N/A   Clear
1:56 PM 26.6 °F 20.0 °F 15.8 °F 64% 30.27 in 10.0 mi ESE 5.8 mph - N/A   Clear
2:16 PM 28.4 °F 20.4 °F 15.8 °F 59% 30.26 in 10.0 mi ESE 8.1 mph - N/A   Clear
2:36 PM 28.4 °F 20.4 °F 15.8 °F 59% 30.26 in 10.0 mi ESE 8.1 mph - N/A   Clear
2:56 PM 28.4 °F 20.4 °F 15.8 °F 59% 30.25 in 10.0 mi ESE 8.1 mph - N/A   Clear
3:16 PM 30.2 °F 21.9 °F 15.8 °F 55% 30.25 in 10.0 mi ESE 9.2 mph - N/A   Clear
3:36 PM 30.2 °F 22.6 °F 17.6 °F 60% 30.24 in 10.0 mi ESE 8.1 mph - N/A   Clear
3:56 PM 32.0 °F 24.8 °F 15.8 °F 51% 30.24 in 10.0 mi ESE 8.1 mph - N/A   Clear
4:16 PM 30.2 °F 21.3 °F 15.8 °F 55% 30.23 in 10.0 mi ESE 10.4 mph - N/A   Clear
4:36 PM 30.2 °F 21.9 °F 15.8 °F 55% 30.22 in 10.0 mi ESE 9.2 mph - N/A   Clear
4:56 PM 32.0 °F 24.2 °F 15.8 °F 51% 30.22 in 10.0 mi ESE 9.2 mph - N/A   Clear
5:16 PM 30.2 °F 21.3 °F 15.8 °F 55% 30.22 in 10.0 mi ESE 10.4 mph - N/A   Clear
5:36 PM 30.2 °F 22.6 °F 15.8 °F 55% 30.22 in 10.0 mi ESE 8.1 mph - N/A   Clear
5:56 PM 30.2 °F 23.4 °F 15.8 °F 55% 30.22 in 10.0 mi ESE 6.9 mph - N/A   Clear
6:16 PM 33.8 °F 29.6 °F 15.8 °F 48% 30.22 in 10.0 mi SE 4.6 mph - N/A   Clear
6:36 PM 32.0 °F 26.4 °F 14.0 °F 48% 30.22 in 10.0 mi SSE 5.8 mph - N/A   Clear
6:56 PM 33.8 °F 30.8 °F 17.6 °F 52% 30.21 in 10.0 mi SSE 3.5 mph - N/A   Clear
7:16 PM 33.8 °F 30.8 °F 17.6 °F 52% 30.21 in 10.0 mi South 3.5 mph - N/A   Clear
7:36 PM 32.0 °F - 17.6 °F 55% 30.21 in 10.0 mi Calm Calm - N/A   Clear
7:56 PM 30.2 °F - 17.6 °F 60% 30.21 in 10.0 mi Calm Calm - N/A   Clear
8:16 PM 30.2 °F - 14.0 °F 51% 30.21 in 10.0 mi Calm Calm - N/A   Clear
8:36 PM 26.6 °F - 12.2 °F 55% 30.22 in 10.0 mi Calm Calm - N/A   Clear
8:56 PM 26.6 °F - 12.2 °F 55% 30.22 in 10.0 mi Calm Calm - N/A   Clear
9:16 PM 24.8 °F - 17.6 °F 74% 30.22 in 10.0 mi Calm Calm - N/A   Clear
9:36 PM 24.8 °F - 14.0 °F 64% 30.22 in 10.0 mi Calm Calm - N/A   Clear
9:56 PM 21.2 °F - 15.8 °F 80% 30.23 in 10.0 mi Calm Calm - N/A   Clear
10:16 PM 21.2 °F - 10.4 °F 63% 30.23 in 10.0 mi Calm Calm - N/A   Clear
10:36 PM 19.4 °F - 10.4 °F 68% 30.23 in 10.0 mi Calm Calm - N/A   Clear
10:56 PM 17.6 °F - 12.2 °F 79% 30.23 in 10.0 mi Calm Calm - N/A   Clear
11:16 PM 17.6 °F - 10.4 °F 73% 30.23 in 10.0 mi Calm Calm - N/A   Clear
11:36 PM 15.8 °F - 12.2 °F 86% 30.23 in 10.0 mi Calm Calm - N/A   Clear
11:56 PM 14.0 °F - 5.0 °F 67% 30.23 in 6.0 mi Calm Calm - N/A   Partly Cloudy